Location: Tarnowskie Gory
(50.4500°N, 18.8670°E)
Time: 01:28:44
(UTC+02:00)

ISS - Visible Passes

Search period start: 13 May 2021 00:00
Search period end: 23 May 2021 00:00
Orbit: 417 x 422 km, 51.6° (Epoch: 12 May)

Date Brightness Start Highest point End Pass type
(mag) Time Alt. Az. Time Alt. Az. Time Alt. Az.
13 May -2.2 00:32:07 28° ENE 00:32:07 28° ENE 00:33:50 10° ENE visible
13 May -3.5 02:05:02 18° WNW 02:07:22 71° N 02:10:45 10° E visible
13 May -3.7 03:40:51 10° WNW 03:44:11 56° SSW 03:47:30 10° SE visible
13 May -1.4 23:45:45 15° ENE 23:45:45 15° ENE 23:46:24 10° ENE visible
14 May -3.5 01:18:38 35° WNW 01:19:53 69° N 01:23:16 10° E visible
14 May -3.9 02:53:24 10° WNW 02:56:47 74° SSW 03:00:09 10° ESE visible
14 May -1.8 21:18:07 10° SSE 21:19:26 12° SE 21:20:46 10° ESE visible
14 May -3.7 22:52:22 10° SW 22:57:49 19° E 22:58:55 10° ENE visible
15 May -3.6 00:29:02 10° W 00:32:25 73° N 00:35:48 10° E visible
15 May -3.8 02:05:57 10° WNW 02:09:20 89° N 02:12:44 10° ESE visible
15 May -2.9 03:42:57 10° W 03:45:56 29° SSW 03:48:53 10° SSE visible
15 May -3.2 22:05:10 10° SW 22:08:17 35° SSE 22:11:24 10° E visible
15 May -3.8 23:41:34 10° W 23:44:57 81° N 23:48:20 10° ENE visible
16 May -3.7 01:18:30 10° WNW 01:21:53 77° N 01:25:16 10° E visible
16 May -3.4 02:55:24 10° W 02:58:36 40° SSW 03:01:48 10° SE visible
16 May -2.7 21:18:08 10° SSW 21:20:58 25° SE 21:23:49 10° E visible
16 May -3.9 22:54:07 10° WSW 22:57:30 85° SSE 23:00:53 10° ENE visible
17 May -3.6 00:31:02 10° W 00:34:25 71° N 00:37:47 10° E visible
17 May -3.8 02:07:54 10° WNW 02:11:14 56° SSW 02:14:32 10° SE visible
17 May -2.0 03:45:41 10° WSW 03:47:30 14° SW 03:49:19 10° S visible
17 May -3.9 22:06:44 10° WSW 22:10:04 67° SSE 22:13:26 10° ENE visible
17 May -3.5 23:43:34 10° W 23:46:56 69° N 23:50:03 12° E visible
18 May -3.2 01:20:26 10° WNW 01:22:56 45° W 01:22:56 45° W visible
18 May -3.6 21:19:25 10° SW 21:22:40 50° SSE 21:25:58 10° ENE visible
18 May -3.6 22:56:04 10° W 22:59:27 73° N 23:02:50 10° E visible
19 May -3.9 00:33:00 10° WNW 00:36:23 89° NNE 00:36:32 81° E visible
19 May -3.7 22:08:36 10° W 22:11:59 81° N 22:15:22 10° ENE visible
19 May -3.7 23:45:32 10° WNW 23:48:56 77° N 23:50:22 32° E visible
20 May -1.6 01:22:26 10° W 01:23:17 16° W 01:23:17 16° W visible
20 May -3.8 21:21:10 10° WSW 21:24:32 85° SSE 21:27:54 10° ENE visible
20 May -3.5 22:58:04 10° W 23:01:27 71° N 23:04:17 14° E visible
21 May -2.8 00:34:56 10° WNW 00:37:13 37° W 00:37:13 37° W visible
21 May -3.5 22:10:35 10° W 22:13:57 69° N 22:17:19 10° E visible
21 May -3.9 23:47:28 10° WNW 23:50:51 73° SSW 23:51:11 65° SSE visible
22 May -3.5 21:23:06 10° W 21:26:28 72° N 21:29:51 10° E visible
22 May -3.8 23:00:01 10° WNW 23:03:24 90° NNW 23:05:12 26° ESE visible
